Regional Weather Roundup
Issued by NWS

Home | Current Version | Previous Version | Text Only | Print | Product List | Glossary Off
Versions: 1 2 3 4 5 6 7 8 9 10 11 12 13 14 15 16 17 18 19 20 21 22 23 24 25 26 27 28 29 30 31 32 33 34 35 36 37 38 39 40 41 42 43 44 45 46 47 48 49 50

000
ASUS43 KMPX 030901
RWRMN
WEATHER ROUNDUP FOR MINNESOTA
NATIONAL WEATHER SERVICE TWIN CITIES/CHANHASSEN MN
400 AM CDT TUE MAY 03 2016


NOTE: "FAIR" INDICATES FEW OR NO CLOUDS BELOW 12,000 FEET WITH NO
SIGNIFICANT WEATHER AND/OR OBSTRUCTIONS TO VISIBILITY. N/A MEANS
CURRENT SKY AND/OR WEATHER CONDITIONS ARE NOT AVAILABLE.

MNZ060>063-068>070-031000-
   Twin Cities Metro

CITY           SKY/WX    TMP DP  RH WIND       PRES   REMARKS
TWIN CITIES    CLEAR     51  37  58 SW6       29.96F
ST PAUL        CLEAR     48  39  71 N5        29.97S
CRYSTAL        CLEAR     53  37  54 SW7       29.94F
BLAINE         CLEAR     50  37  62 SW5       29.95S
EDEN PRAIRIE   CLEAR     49  36  61 SW6       29.95F
SOUTH ST PAUL  CLEAR     51  37  59 W8        29.96R
LAKE ELMO      FAIR      45  37  76 W5        29.97S
$$
MNZ001>005-007-008-013>017-022>024-027-028-031000-
   Northwest Minnesota

CITY           SKY/WX    TMP DP  RH WIND       PRES   REMARKS
BEMIDJI        CLOUDY    48  36  62 W9        29.89F
HALLOCK        PTCLDY    52  36  54 W10       29.86S
ROSEAU         CLEAR     54  39  58 W9G17     29.82F
WARROAD        PTCLDY    52  39  62 W12G17    29.82F
THIEF RVR FALL MOCLDY    48  34  57 W10       29.90F
CROOKSTON      PTCLDY    52  36  54 W10       29.91S
FOSSTON        CLOUDY    46  34  61 W8        29.91F
DETROIT LAKES  PTCLDY    50  36  57 NW7       29.95S
MOORHEAD       CLEAR     46  36  66 SW5       29.95F
PARK RAPIDS    CLOUDY    45  35  68 W6        29.92S
MAHNOMEN       FAIR      46  35  65 CALM      29.92F
$$
MNZ006-009>011-018-025>026-031000-
   North Central Minnesota

CITY           SKY/WX    TMP DP  RH WIND       PRES   REMARKS
BAUDETTE       CLOUDY    53  33  46 W12       29.80F
FLAG ISLAND    CLOUDY    55  36  47 W15       29.76F
INTL FALLS     CLOUDY    50  31  48 W9        29.78F
WASKISH        CLOUDY    52  45  76 SW10      29.84F
BIG FORK       CLOUDY    48  30  49 W6        29.84F
LONGVILLE      CLOUDY    41  37  87 CALM      29.90S
GRAND RAPIDS   CLOUDY    52  32  46 W8        29.88F
CRANE LAKE     PTCLDY    48  28  46 S6        29.81F
ORR            MOCLDY    46  25  42 SW3       29.79F
COOK           CLOUDY    46  30  53 SW5       29.83F
WALKER         FAIR      51  35  54 W9        29.90F
$$
MNZ012-019>021-037-031000-
   Northeast Minnesota

CITY           SKY/WX    TMP DP  RH WIND       PRES   REMARKS
DULUTH         CLOUDY    49  31  49 W12       29.86F
ELY            PTCLDY    46  30  53 SW7       29.81F
HIBBING        PTCLDY    34  31  88 W3        29.84F
EVELETH        CLOUDY    39  32  75 W3        29.85F
DULUTH HARBOR  CLEAR     45  36  70 SW13      29.86F
TWO HARBORS    CLOUDY    52  36  54 W7        29.82F
SILVER BAY     CLOUDY    34  30  86 CALM      29.82F
GRAND MARAIS     N/A     38  34  85 W8        29.80F
G MARAIS ARPRT CLOUDY    45  27  49 W5        29.80F
$$
MNZ029>031-032-039>041-046>048-054>057-064-031000-
   West Central Minnesota

CITY           SKY/WX    TMP DP  RH WIND       PRES   REMARKS
FERGUS FALLS   CLOUDY    45  36  70 CALM      29.95S
WHEATON        CLOUDY    48  41  76 W6        29.99F
MORRIS         CLOUDY    43  36  75 W7        29.96F
ALEXANDRIA     CLEAR     48  36  63 W5        29.96F
ELBOW LAKE     FAIR      46  36  68 NW6       29.97S
WADENA         CLEAR     45  36  70 W5        29.94S
GLENWOOD       CLEAR     46  36  66 W5        29.96F
APPLETON       CLOUDY    43  37  81 W3        29.98S
BENSON         CLEAR     39  34  81 CALM      29.97S
ORTONVILLE     CLOUDY    46  39  76 W5        29.98S
MADISON        CLEAR     43  37  81 W7        29.99S
WILLMAR        FAIR      45  36  70 W3        29.98S
$$
MNZ033>034-036-042>043-049>051-058-059-031000-
   Central Minnesota

CITY           SKY/WX    TMP DP  RH WIND       PRES   REMARKS
ST CLOUD       CLEAR     43  35  73 CALM      29.94F
SAUK CENTRE    FAIR      42  32  67 CALM      29.95F
PAYNESVILLE    CLEAR     41  35  79 W6        29.96S
AITKIN         CLOUDY    50  28  43 SW5       29.90S
PINE RIVER     CLOUDY    43  34  70 CALM      29.95S
BRAINERD       CLOUDY    41  32  70 CALM      29.92F
STAPLES        PTCLDY    43  32  65 W5        29.94S
LONG PRAIRIE   FAIR      41  34  75 CALM      29.95F
LITTLE FALLS   CLEAR     37  32  81 CALM      29.94S
LITCHFIELD     CLEAR     48  37  66 SW5       29.96F
BUFFALO        CLEAR     46  38  71 CALM      29.96S
MAPLE LAKE     CLEAR     48  39  71 SW3       29.96F
HUTCHINSON     CLEAR     46  38  75 SW6       29.98S
$$
MNZ037-044-045-052-053-031000-
   East Central Minnesota

CITY           SKY/WX    TMP DP  RH WIND       PRES   REMARKS
PRINCETON      CLEAR     45  36  70 CALM      29.94S
MORA           CLEAR     46  32  57 SW3       29.94S
CAMBRIDGE      CLEAR     43  34  70 CALM      29.92S
RUSH CITY      PTCLDY    48  36  63 SW3       29.93S
MOOSE LAKE     CLOUDY    46  32  57 W7        29.89S
HINCKLEY       FAIR      39  37  93 CALM      29.92S
CLOQUET        CLOUDY    50  28  43 SW9       29.87F
MCGREGOR       CLOUDY    50  32  50 SW5       29.90F
$$
MNZ071>073-080-081-089-090-097-098-031000-
   Southwest Minnesota

CITY           SKY/WX    TMP DP  RH WIND       PRES   REMARKS
MONTEVIDEO     CLEAR     45  37  76 NW7       30.00S
GRANITE FALLS  CLEAR     45  38  76 SW8       30.00S
CANBY          CLEAR     47  41  81 W6        30.01S
MARSHALL       CLEAR     46  38  73 W8        30.00S
REDWOOD FALLS  CLEAR     50  37  61 W12       29.98F
OLIVIA         CLEAR     41  34  75 W7        29.97S
PIPESTONE      CLEAR     43  37  81 CALM      30.01S
WINDOM         CLEAR     43  39  87 CALM      30.00S
WORTHINGTON    CLEAR     44  38  79 W8        30.02R
JACKSON        PTCLDY    45  36  70 W3        30.01S
TRACY          CLEAR     51  40  67 W7        30.00S
SLAYTON        CLEAR     47  38  68 W7        30.01F
$$
MNZ065>067-074>077-082>085-091>093-031000-
   South Central Minnesota

CITY           SKY/WX    TMP DP  RH WIND       PRES   REMARKS
MANKATO        CLEAR     48  36  61 SW6       29.98F
NEW ULM        CLEAR     45  39  81 W5        29.99S
ST JAMES       CLEAR     39  36  87 SW5       30.00F
FAIRMONT       CLEAR     46  36  66 W9        30.00R
GLENCOE        CLEAR     47  41  77 SW6       29.96S
FARIBAULT      CLEAR     43  39  87 S3        29.98S
OWATONNA       CLEAR     45  37  76 SW3       29.99S
WASECA         CLEAR     41  36  81 CALM      30.00S
ALBERT LEA     CLEAR     48  39  71 SW5       30.00R
$$
MNZ078>079-086>088-094>096-031000-
   Southeast Minnesota

CITY           SKY/WX    TMP DP  RH WIND       PRES   REMARKS
ROCHESTER      CLEAR     45  40  82 SW10      29.99S
RED WING       CLEAR     39  37  93 CALM      29.96S
STANTON        CLEAR     43  36  76 S3        29.96S
DODGE CENTER   PTCLDY    39  37  93 W8        29.98S
WINONA         CLEAR     43  41  93 CALM      29.98S
AUSTIN         CLEAR     43  37  81 SW3       30.00R
PRESTON        CLEAR     46  37  73 W8        30.00R
$$
ABBREVIATIONS USED IN REMARKS
   TC - TEMPERATURES IN CELSIUS
  WCI - WIND CHILL INDEX
   HX - HEAT INDEX
  VSB - VISIBILITY
$$



USA.gov is the U.S. government's official web portal to all federal, state and local government web resources and services.